Zurück zum Katalog

STARLINK-3161

AktivKommunikationVLEO
NORAD 49422·PAYLOAD·🇺🇸 United States

Gestartet Nov 13, 2021 von Cape Canaveral Space Force Station

Loading…

Nächste Überflüge (nächste 24 Stunden)

TLE

AktuellSource: CelesTrak SupGP

Epoche: Sep 14, 2026, 21:05 UTC

1 49422C 21104Q   26257.87895833 -.00006383  00000+0 -18263-3 0  2573
2 49422  53.1577  87.8726 0001257  83.3076 322.3592 15.35398629    19

Verfolge STARLINK-3161 in Echtzeit mit AllMySat

Download on the App Store